Weather Roundup
Issued by NWS

Home | Current Version | Previous Version | Graphics & Text | Print | Product List | Glossary Off
Versions: 1 2 3 4 5 6 7 8 9 10 11 12 13 14 15 16 17 18 19 20 21 22 23 24 25 26 27 28 29 30 31 32 33 34 35 36 37 38 39 40 41 42 43 44 45 46 47 48 49 50

568
NZUS93 KARX 091459
HRRWXR

CURRENT HOURLY OBSERVATIONS ACROSS
MUCH OF THE UPPER MISSISSIPPI VALLEY
NATIONAL WEATHER SERVICE LA CROSSE WI
900 AM CST TUE FEB 09 2016


...SOUTHEAST MINNESOTA...


CITY           SKY/WX    TMP DP  RH WIND       PRES   REMARKS
ROCHESTER      PTSUNNY    5  -1  76 NW25      30.00R HAZE    WCI -18
ROCHESTER/MAYO CLOUDY     6  -1  73 NW21G28   30.01S WCI -14
WINONA         MOSUNNY   10   1  67 N12G20    30.05R WCI  -4
AUSTIN         PTSUNNY    5   0  78 N16G23    30.03R WCI -14
ALBERT LEA     SUNNY      7   0  72 NW14G23   30.05R WCI -10
DODGE CENTER   SUNNY      5  -2  72 N21       30.01S WCI -16
PRESTON        CLOUDY     4  -2  74 N16G23    29.99S WCI -14
OWATONNA       SUNNY      5  -2  72 NW15      30.07S WCI -13
FARIBAULT      SUNNY      7  -2  66 NW12G18   30.09R WCI  -9
$$

...ELSEWHERE IN MINNESOTA...


CITY           SKY/WX    TMP DP  RH WIND       PRES   REMARKS
MINNEAPOLIS    MOSUNNY    7  -2  66 NW16G32   30.10S WCI -11
INTNL FALLS    CLOUDY    -4 -10  75 NW13      30.14S WCI -23
DULUTH         MOSUNNY    0  -6  76 N14       30.00S WCI -19
RED WING       SUNNY      7  -4  61 NW6G20    30.07R WCI  -3
REDWOOD FALLS  SUNNY      7   0  73 NW17G24   30.19R WCI -12
MANKATO        SUNNY      7   0  72 NW17G25   30.12R WCI -12
WORTHINGTON    SUNNY      3  -2  78 N22       30.16S WCI -19
FAIRMONT       SUNNY      7   0  72 NW23G29   30.11R WCI -14
$$

...SOUTHWEST WISCONSIN...


CITY           SKY/WX    TMP DP  RH WIND       PRES   REMARKS
LA CROSSE      SUNNY      7  -1  70 NW18      30.01R WCI -12
PRAIRIE DU CHI SUNNY     10   0  64 NW12G17   29.99R WCI  -5
BOSCOBEL       CLOUDY    11   1  64 NW10      29.97R WCI  -3
LONE ROCK      LGT SNOW  10   2  69 NW13      29.94R WCI  -5
PLATTEVILLE    PTSUNNY   10   5  78 NW17      29.91R WCI  -7
FORT MC COY    FLURRIES   8   1  75 NW13G18   29.97S WCI  -8
CAMP DOUGLAS   FLURRIES   9   5  85 NW15      29.92R WCI  -8
VIROQUA        FAIR       5  -1  76 NW16      29.92R WCI -13
WIS DELLS      CLOUDY     8   3  77 NW12G17   29.88R HAZE    WCI  -7
$$

...ELSEWHERE IN WISCONSIN...


CITY           SKY/WX    TMP DP  RH WIND       PRES   REMARKS
MILWAUKEE      PTSUNNY   15   6  67 NW14      29.81R WCI   0
MADISON        FLURRIES  10   2  69 NW12G22   29.87R WCI  -5
GREEN BAY      LGT SNOW  14   8  77 NW10      29.82R WCI   1
EAU CLAIRE     NOT AVBL
BLACK RVR FLS  PTSUNNY    6  -2  67 NW10      29.97R WCI  -8
MEDFORD        CLOUDY     6   1  79 NW17      29.84R HAZE    WCI -13
WAUSAU         LGT SNOW  12   5  73 NW7       29.81S WCI   1
WIS RAPIDS     CLOUDY     8  -1  66 NW15      29.89S WCI  -9
MARSHFIELD     CLOUDY     6  -2  69 NW21      29.85S HAZE    WCI -14
RICE LAKE      MOSUNNY    2  -5  72 NW9G16    30.03R WCI -12
$$

...NORTHEAST IOWA...


CITY           SKY/WX    TMP DP  RH WIND       PRES   REMARKS
WATERLOO       CLOUDY     9   2  73 NW20      30.02R WCI -10
DUBUQUE        CLOUDY    10   2  69 NW22      29.92R WCI -10
DECORAH        FLURRIES   7   1  78 NW22      29.96S WCI -14
MASON CITY     CLOUDY     6   0  76 NW25      30.06R WCI -16
CHARLES CITY   CLOUDY     7   1  78 NW20G26   30.02R WCI -13
OELWEIN        LGT SNOW   9   3  78 NW25G31   29.99R VSB 3/4 WCI -13
$$

...ELSEWHERE IN IOWA...


CITY           SKY/WX    TMP DP  RH WIND       PRES   REMARKS
DES MOINES     MOSUNNY   11   2  67 NW21      30.12R WCI  -8
IOWA CITY      CLOUDY    13   5  70 NW18G25   30.02R WCI  -4
FORT DODGE     MOSUNNY    7   0  72 NW9G23    30.13R WCI  -7
MARSHALLTOWN   CLOUDY     8   3  80 NW21      30.06R WCI -12
CEDAR RAPIDS   MOSUNNY   12   6  77 N20G29    29.99R WCI  -6
$$

...NORTHERN ILLINOIS...


CITY           SKY/WX    TMP DP  RH WIND       PRES   REMARKS
CHICAGO-OHARE  LGT SNOW  15   9  76 NW17G23   29.82R WCI  -1
CHICAGO-MIDWAY LGT SNOW  17   9  70 NW18      29.82R FOG     WCI   1
MOLINE         PTSUNNY   16   5  62 NW18G24   29.95R WCI   0
ROCKFORD       LGT SNOW  13   7  77 NW13      29.89R WCI  -2
PEORIA         LGT SNOW  15   7  70 NW9G18    29.93R WCI   3
$$

NOTE: "FAIR" INDICATES FEW OR NO CLOUDS BELOW 12,000 FEET WITH NO
SIGNIFICANT WEATHER AND/OR OBSTRUCTIONS TO VISIBILITY. WIND
SPEEDS ARE IN MILES-PER-HOUR.




USA.gov is the U.S. government's official web portal to all federal, state and local government web resources and services.